Flag for Chile Weather past 2 weeks in Iquique, Chile

Now
57 °F

Overcast.


Feels Like: 54 °F
Forecast: 59 / 67 °F
Wind: 14 mph from East

Location: Iquique / Diego Arac

Current Time: Jul 22, 2014 at 7:41:59 AM

Latest Report: Jul 22, 2014 at 7:00 AM


Visibility: 4 mi

Pressure: 30.01 "Hg

Humidity: 63%

Dew point: 45 °F

Location of IquiqueLocation

Historic Weather in Iquique — Graph

°F

Iquique temperature yesterday

Maximum temperature yesterday: 61 °F (at 12:00 PM)
Minimum temperature yesterday: 55 °F (at 3:00 AM)
Average temperature yesterday: 59 °F

Past Weeks' High & Low Weather Summary

 TemperatureHumidityPressure
High63 °F (Jul 7, 3:00 PM)82% (Jul 10, 7:00 AM)30.12 "Hg (Jul 10, 7:00 AM)
Low52 °F (Jul 10, 6:00 AM)55% (Jul 9, 11:00 AM)29.89 "Hg (Jul 12, 4:00 PM)
Average59 °F67%30.00 "Hg
* Reported Jul 7 6:00 AM — Jul 22 6:00 AM, Iquique, Weather by CustomWeather, © 2014

Note: Actual official high and low records may vary slightly from our data, if they occured in-between our weather recording intervals... More about our weather records

Advertising

Iquique weather history for previous 24 hours

 ConditionsComfort  
Time TempWeatherWind HumidityBarometerVisibility
6:00 AM
Jul 22
57 °FOvercast.7 mph63%30.01 "Hg4 mi
5:00 AM57 °FOvercast.6 mph67%30.01 "Hg4 mi
4:00 AM57 °FOvercast.3 mph67%29.98 "Hg4 mi
3:00 AM57 °FOvercast.8 mph67%29.98 "Hg4 mi
2:00 AM57 °FOvercast.6 mph72%30.01 "Hg4 mi
1:00 AM59 °FOvercast.3 mph68%30.04 "Hg4 mi
12:00 AM59 °FOvercast.7 mph68%30.04 "Hg5 mi
11:00 PM
Jul 21
59 °FOvercast.3 mph68%30.01 "Hg5 mi
10:00 PM57 °FOvercast.7 mph72%30.01 "Hg5 mi
9:00 PM59 °FOvercast.7 mph68%30.01 "Hg5 mi
8:00 PM59 °FOvercast.14 mph68%30.04 "Hg4 mi
7:00 PM59 °FPassing clouds.15 mph68%30.01 "Hg4 mi
6:00 PM59 °FPassing clouds.14 mph68%29.98 "Hg4 mi
5:00 PM61 °FSunny.13 mph63%29.95 "Hg4 mi
4:00 PM61 °FSunny.16 mph63%29.95 "Hg4 mi
3:00 PM61 °FSunny.20 mph63%29.98 "Hg4 mi
2:00 PM61 °FSunny.17 mph63%30.01 "Hg3 mi
1:00 PM61 °FScattered clouds.16 mph63%30.04 "Hg2 mi
12:00 PM61 °FScattered clouds.15 mph63%30.07 "Hg3 mi
11:00 AM59 °FScattered clouds.3 mph68%30.07 "Hg4 mi
10:00 AM59 °FScattered clouds.7 mph68%30.07 "Hg4 mi
9:00 AM57 °FPartly sunny.8 mph72%30.07 "Hg5 mi
8:00 AM57 °FPartly sunny.14 mph67%30.07 "Hg6 mi
7:00 AM57 °FOvercast.12 mph72%30.04 "HgN/A
Weather by CustomWeather, © 2014

See weather overviewHow to use our weather pages